LEO VANTAGE 1 (43113 NORAD) Tracking and Keplerian Element Data

This shows tracking and keplerian element data for the satellite.

Feedback or suggestion? Click here.




ElementValue
Catalog43113
NameLEO VANTAGE 1
Epoch Orbit23892
Epoch Day269.50879277
Epoch Year2022
RAAN0.3344
Inclination99.2437
Eccentricity0.0399586
Argument of Perigee247.6316
Mean Anonmoly108.2083
Mean Motion14.54148769
Decay Rate2.386E-05
L11 43113U 18004C 22269.50879277 .00002386 00000+0 19763-3 0 9998
L22 43113 99.2437 0.3344 0399586 247.6316 108.2083 14.54148769238926

Live tracking and technical data element details for LEO VANTAGE 1 (NORAD 43113). LEO VANTAGE 1 can be tracked NOW for your location showing map with azimuth and elevation plus other details from your city location.

Track the satellite on the map from your city or location and see movement details for azimuth, elevation, latitude, longitude, range, height, and movement on the map or in text.







IsCatalogInMostPopularTable: catalog: 43113, numindb: 633
Update: records affected: 1



GetName: 43113 LEO VANTAGE 1

Hit Count: updated at: Wed, 05 Oct 2022 07:44:25 GMT